Starlink 30454

operational
NORAD ID: 57915 Int'l Des: 2023-147 Owner: SPXS Country: US Constellation: starlink
LEOCIRCULAR

关于 Starlink 30454

正在加载描述...

实时位置

正在加载3D地球...

即将过境

高度历史

Altitude vs Time

uPlot chart will show altitude changes over time

两行轨道根数

1 57915U 23147C 25260.17829171 -.00005868 00000-0 -41950-3 0 9996
2 57915 43.0074 189.1886 0001427 276.1834 83.8846 15.02553625110488
Epoch: Sep 17, 2025 • Age: 41 hours

当前状态

高度 559.8 km
速度 7.59 km/s
星下点 25.10°N, 20.13°E
发射日期 Sep 24, 2023
运行时间 1.9 years
类型 internet

技术详情

分类 Payload
质量 730.00 kg
干质量 700.00 kg
总质量 730.00 kg
长度 0.30 m
直径 4.10 m
跨度 29.00 m
形状 Box + pan
制造商 SPXS
平台类型 Starlink V2M
阶段状态 In Orbit
所有者/国家 SPXS/US

大型星座

Loading constellations...